TimeCST,TemperatureF,Dew PointF,Humidity,Sea Level PressureIn,VisibilityMPH,Wind Direction,Wind SpeedMPH,Gust SpeedMPH,PrecipitationIn,Events,Conditions,WindDirDegrees,DateUTC
12:50 AM,62.6,44.6,52,30.34,10.0,North,11.5,-,N/A,,Overcast,10,2012-11-24 06:50:00
1:50 AM,60.8,37.4,42,30.32,10.0,North,15.0,-,N/A,,Overcast,10,2012-11-24 07:50:00
2:50 AM,57.2,33.8,41,30.33,10.0,North,17.3,-,N/A,,Overcast,10,2012-11-24 08:50:00
3:50 AM,55.4,30.2,38,30.34,10.0,North,16.1,-,N/A,,Mostly Cloudy,10,2012-11-24 09:50:00
4:50 AM,53.6,30.2,41,30.34,10.0,NNE,11.5,-,N/A,,Scattered Clouds,20,2012-11-24 10:50:00
5:50 AM,51.8,28.4,41,30.36,10.0,NNE,9.2,-,N/A,,Partly Cloudy,20,2012-11-24 11:50:00
6:50 AM,50.0,28.4,43,30.37,10.0,North,10.4,-,N/A,,Partly Cloudy,10,2012-11-24 12:50:00
7:50 AM,48.2,28.4,46,30.39,10.0,NNE,11.5,-,N/A,,Partly Cloudy,20,2012-11-24 13:50:00
8:50 AM,50.0,30.2,47,30.40,10.0,North,11.5,-,N/A,,Partly Cloudy,10,2012-11-24 14:50:00
9:50 AM,50.0,30.2,47,30.39,10.0,NNE,9.2,-,N/A,,Partly Cloudy,30,2012-11-24 15:50:00
10:50 AM,53.6,32.0,44,30.38,10.0,NNE,8.1,-,N/A,,Partly Cloudy,30,2012-11-24 16:50:00
11:50 AM,55.4,32.0,41,30.34,10.0,North,9.2,-,N/A,,Partly Cloudy,10,2012-11-24 17:50:00
12:50 PM,59.0,33.8,39,30.30,10.0,NNE,10.4,-,N/A,,Partly Cloudy,30,2012-11-24 18:50:00
1:50 PM,62.6,33.8,34,30.26,10.0,NNE,3.5,-,N/A,,Partly Cloudy,30,2012-11-24 19:50:00
2:50 PM,64.4,33.8,32,30.24,10.0,North,4.6,-,N/A,,Partly Cloudy,10,2012-11-24 20:50:00
4:50 PM,69.8,35.6,28,30.23,10.0,East,4.6,-,N/A,,Clear,100,2012-11-24 22:50:00
5:50 PM,60.8,35.6,39,30.24,10.0,Calm,Calm,-,N/A,,Clear,0,2012-11-24 23:50:00
6:50 PM,57.2,35.6,44,30.23,10.0,Calm,Calm,-,N/A,,Clear,0,2012-11-25 00:50:00
7:50 PM,55.4,35.6,47,30.24,10.0,Calm,Calm,-,N/A,,Clear,0,2012-11-25 01:50:00
8:50 PM,53.6,35.6,51,30.23,10.0,Calm,Calm,-,N/A,,Clear,0,2012-11-25 02:50:00
9:50 PM,51.8,35.6,54,30.23,10.0,Calm,Calm,-,N/A,,Clear,0,2012-11-25 03:50:00
10:50 PM,50.0,35.6,58,30.22,10.0,Calm,Calm,-,N/A,,Clear,0,2012-11-25 04:50:00
11:50 PM,50.0,33.8,54,30.19,10.0,Calm,Calm,-,N/A,,Clear,0,2012-11-25 05:50:00